INTELSAT II F-2

operational
NORAD ID: 2639 Int'l Des: 1967-001 Owner: INTEL Country: I-INT
HEOCIRCULAR

About INTELSAT II F-2

Description loading...

Live Position

Loading 3D Globe...

Upcoming Passes

Altitude History

Altitude vs Time

uPlot chart will show altitude changes over time

Two-Line Element Set

1 2639U 67001A 26063.15115433 -.00000231 00000-0 00000+0 0 9990
2 2639 2.9831 78.3600 0008184 210.0388 258.6123 1.00217468118198
Epoch: Mar 4, 2026 • Age: 22 hours

Current Status

Altitude 35835.6 km
Velocity 3.07 km/s
Sub-Earth Point 1.49°N, 29.49°W
Type communications

Large Constellations

Loading constellations...